[[{"header":{"parameterUnit":"m.s-1","parameterCategory":1,"la1":30.2991,"la2":30.254,"lo1":-89.0895,"lo2":-89.0444,"dy":0.0017,"dx":0.0017,"nx":28,"ny":28,"refTime":"2025-08-16T21:00:00:Z","depth":0,"parameterNumber":2,"parameterNumberName":"U-component_of_WINDS"},"data":[0,0,0,0,0,0,0,0,0,0,0,0,0,0,0,0,0,0,0,0,0,0,0,0,0,0,0,0,0,0,0,0,0,0,0,0,0,0,0,0,0,0,0,0,0,0,0,0,0,0,0,0,0,0,0,0,0,0,1.6764,1.6764,0,1.6784,1.6785,1.6785,1.6698,1.6696,1.6693,1.6691,1.6716,1.6719,1.6722,0,0,0,0,0,0,0,0,0,0,0,0,0,1.6655,1.6658,1.6764,1.6764,1.6764,1.6784,1.6785,1.6785,1.6699,1.6696,1.6693,1.669,1.6715,1.6718,1.6722,0,0,0,0,0,0,0,0,0,0,0,0,0,1.6692,1.6659,1.6764,1.6724,1.672,1.6784,1.6785,1.6785,1.6699,1.6696,1.6692,1.6688,1.6714,1.6718,1.6723,1.6827,0,0,1.6737,1.6739,0,0,0,0,0,0,0,0,1.669,1.6696,1.6729,1.6727,1.6723,1.6735,1.6755,1.6799,1.67,1.6708,1.6691,1.6686,1.6726,1.6729,1.6741,1.6829,1.683,1.6737,1.674,1.6742,1.6743,0,0,0,0,0,0,0,1.6688,1.6695,1.6772,1.673,1.6726,1.6706,1.6707,1.6763,1.6738,1.6707,1.67,1.6704,1.6723,1.6737,1.6741,1.683,1.6737,1.6741,1.6744,1.6746,1.7007,1.7011,0,0,0,0,0,0,1.669,1.6693,1.6771,1.6773,1.6697,1.6711,1.6712,1.6735,1.6737,1.6734,1.6707,1.67,1.6731,1.6736,1.6742,1.6866,1.6742,1.6746,1.6749,1.7003,1.7008,1.7012,0,0,0,0,0,0,1.6688,1.6697,1.6771,1.6731,1.6739,1.6717,1.6743,1.6737,1.6751,1.6737,1.6733,1.6726,1.6728,1.6735,1.6807,1.6866,1.6748,1.6752,1.6998,1.7004,1.701,1.7115,0,0,0,0,0,0,1.6685,1.6697,1.6736,1.6733,1.6741,1.6834,1.6747,1.6741,1.6759,1.6749,1.6754,1.6751,1.6726,1.6801,1.6812,1.687,1.6756,1.6992,1.7001,1.7008,1.7106,1.7124,1.7139,0,0,0,0,0,1.6681,1.6765,1.6738,1.6748,1.6789,1.6838,1.6843,1.6812,1.6764,1.6803,1.6795,1.675,1.6857,1.6809,1.682,1.6881,1.6988,1.6998,1.7007,1.7099,1.712,1.7139,0,0,0,0,0,0,1.6776,1.6764,1.6734,1.6818,1.683,1.6823,1.6871,1.6835,1.6861,1.6852,1.6813,1.6815,1.6894,1.6894,1.684,1.6984,1.6915,1.6927,1.698,1.7001,1.7017,1.7016,1.676,0,0,0,0,0,1.6807,1.6846,1.6833,1.691,1.6917,1.6894,1.6914,1.6889,1.6899,1.6904,1.69,1.6914,1.695,1.6976,1.7008,1.7105,1.7106,1.7153,1.717,1.7183,1.7195,1.7249,1.727,1.7043,1.7043,1.7043,0,0,1.6871,1.6869,1.6896,1.6929,1.6934,1.6978,1.6898,1.6947,1.698,1.6912,1.6979,1.6978,1.699,1.7076,1.7113,1.7078,1.7258,1.7195,1.7206,1.7211,1.7261,1.7282,1.7301,1.705,1.7049,1.7047,0,0,1.7009,1.7011,1.7075,1.7083,1.7093,1.7077,1.7093,1.7092,1.7088,1.7154,1.7105,1.7144,1.7207,1.7219,1.7233,1.7378,1.734,1.739,1.7478,1.753,1.7548,1.7564,1.7618,1.7637,1.7401,1.7402,1.7402,0,1.7088,1.715,1.7113,1.7166,1.7183,1.7123,1.7189,1.7198,1.7219,1.7233,1.7193,1.7273,1.7277,1.7365,1.7401,1.7414,1.7432,1.739,1.7548,1.7564,1.7578,1.7629,1.7649,1.7408,1.7407,1.7407,1.7406,0,1.7248,1.7292,1.7343,1.7363,1.7386,1.7445,1.7419,1.7447,1.742,1.7409,1.748,1.7482,1.7516,1.7534,1.7509,1.762,1.7599,1.7554,1.7485,1.7606,1.7654,1.7673,1.7417,1.7415,1.7413,1.7411,0,0,1.7447,1.7447,1.7466,1.7476,1.7483,1.7517,1.7575,1.7606,1.7631,1.7648,1.7697,1.7752,1.7712,1.7728,1.7704,1.775,1.7868,1.77,1.77,1.7733,1.7993,1.8027,1.805,1.7842,1.7845,1.7848,1.7992,0,1.7584,1.7681,1.765,1.7749,1.7791,1.7735,1.7785,1.7796,1.7788,1.7824,1.7815,1.7856,1.7798,1.7808,1.7851,1.7844,1.792,1.7833,1.7889,1.7891,1.7889,1.8074,1.811,1.8247,1.801,1.8013,1.8016,0,1.7757,1.778,1.7883,1.7885,1.7901,1.7947,1.7974,1.8008,1.802,1.8011,1.803,1.7997,1.8055,1.7985,1.8067,1.8009,1.803,1.803,1.8035,1.804,1.7962,1.8086,1.8289,1.831,1.8044,1.8042,1.804,0,1.7895,1.7951,1.8021,1.803,1.8033,1.8067,1.807,1.8078,1.81,1.8124,1.8138,1.817,1.8188,1.8214,1.8191,1.8141,1.8277,1.8204,1.8273,1.8274,1.8305,1.8304,1.8516,1.8317,1.8316,1.8316,1.8315,0,1.8052,1.8118,1.8083,1.8126,1.8198,1.8163,1.8237,1.8234,1.8242,1.8284,1.8238,1.828,1.8245,1.8285,1.8267,1.8339,1.8347,1.8343,1.8338,1.8348,1.8349,1.8362,1.8353,1.8321,1.832,1.8319,1.8318,0,1.8218,1.8197,1.8269,1.8266,1.8267,1.8321,1.8319,1.836,1.8348,1.8403,1.8414,1.8397,1.8441,1.842,1.8466,1.8454,1.8547,1.8529,1.8543,1.8539,1.861,1.8604,1.8839,1.8869,1.8649,1.8651,1.8653,0,1.8321,1.837,1.8372,1.8397,1.8403,1.8444,1.8466,1.8434,1.8459,1.8477,1.8516,1.8556,1.8586,1.8659,1.8652,1.8687,1.867,1.875,1.8676,1.8685,1.8674,1.8672,1.8678,1.8766,1.8768,1.8771,1.8772,0,1.8506,1.8493,1.8526,1.8556,1.8583,1.8605,1.8623,1.8646,1.8615,1.8646,1.869,1.8713,1.876,1.8801,1.8832,1.8837,1.8801,1.8796,1.8814,1.8826,1.8833,1.8832,1.8586,1.8791,1.8789,1.8787,1.8786,1.8786,1.8645,1.8686,1.8695,1.8734,1.8744,1.8762,1.8801,1.8794,1.883,1.8865,1.8844,1.8896,1.8909,1.8947,1.8958,1.8999,1.8968,1.8994,1.9,1.9008,1.9018,1.8825,1.9005,1.9004,1.9003,1.9003,1.9003,0,1.8829,1.8832,1.8867,1.8894,1.8925,1.8886,1.8905,1.8934,1.898,1.8994,1.9025,1.9077,1.9117,1.9113,1.915,1.9184,1.9169,1.9195,1.9193,1.9195,1.9043,1.9024,1.9207,1.9207,1.9207,1.9207,1.9207,1.9207,1.8929,1.8998,1.8987,1.9062,1.9064,1.9114,1.9129,1.9146,1.9158,1.9217,1.925,1.9246,1.9254,1.9292,1.9327,1.9325,1.9342,1.9375,1.9368,1.9226,1.9206,1.9186,1.9169,1.9379,1.9379,1.9516,1.9518,1.9519]},{"header":{"parameterUnit":"m.s-1","parameterCategory":1,"la1":30.2991,"la2":30.254,"lo1":-89.0895,"lo2":-89.0444,"dy":0.0017,"dx":0.0017,"nx":28,"ny":28,"refTime":"2025-08-16T21:00:00:Z","depth":0,"parameterNumber":3,"parameterNumberName":"V-component_of_WINDS"},"data":[0,0,0,0,0,0,0,0,0,0,0,0,0,0,0,0,0,0,0,0,0,0,0,0,0,0,0,0,0,0,0,0,0,0,0,0,0,0,0,0,0,0,0,0,0,0,0,0,0,0,0,0,0,0,0,0,0,0,-0.8341,-0.834,0,-0.8279,-0.8279,-0.8278,-0.8267,-0.8268,-0.8268,-0.8269,-0.82,-0.8198,-0.8196,0,0,0,0,0,0,0,0,0,0,0,0,0,-0.8444,-0.8442,-0.8341,-0.834,-0.8339,-0.828,-0.8279,-0.8278,-0.8267,-0.8268,-0.8268,-0.8269,-0.8201,-0.8198,-0.8195,0,0,0,0,0,0,0,0,0,0,0,0,0,-0.8392,-0.8442,-0.8341,-0.8327,-0.8325,-0.828,-0.8279,-0.8278,-0.8267,-0.8268,-0.8269,-0.8269,-0.8202,-0.8198,-0.8195,-0.8158,0,0,-0.8184,-0.8183,0,0,0,0,0,0,0,0,-0.8395,-0.8389,-0.833,-0.8328,-0.8326,-0.8282,-0.829,-0.8237,-0.8267,-0.8289,-0.8269,-0.827,-0.8226,-0.8221,-0.8207,-0.8154,-0.8152,-0.8184,-0.8182,-0.818,-0.818,0,0,0,0,0,0,0,-0.8399,-0.8391,-0.8316,-0.8329,-0.8326,-0.8322,-0.8316,-0.828,-0.8254,-0.8287,-0.8286,-0.8279,-0.8225,-0.8211,-0.8206,-0.8151,-0.8184,-0.8181,-0.8179,-0.8178,-0.8063,-0.8062,0,0,0,0,0,0,-0.8406,-0.8394,-0.8318,-0.8315,-0.8363,-0.832,-0.8312,-0.8295,-0.8254,-0.8249,-0.8279,-0.8279,-0.8216,-0.821,-0.8203,-0.8156,-0.8181,-0.8177,-0.8175,-0.8064,-0.8063,-0.8061,0,0,0,0,0,0,-0.8408,-0.8399,-0.8321,-0.8354,-0.8344,-0.8317,-0.8298,-0.8293,-0.8279,-0.8248,-0.8243,-0.8269,-0.8217,-0.8208,-0.8169,-0.8154,-0.8176,-0.8173,-0.8065,-0.8063,-0.8062,-0.8062,0,0,0,0,0,0,-0.8411,-0.84,-0.8387,-0.8354,-0.8342,-0.8289,-0.8297,-0.8292,-0.8274,-0.8274,-0.8237,-0.8232,-0.8217,-0.8175,-0.8166,-0.8149,-0.817,-0.8066,-0.8064,-0.8062,-0.8063,-0.8061,-0.8058,0,0,0,0,0,-0.8415,-0.8388,-0.8386,-0.8377,-0.8325,-0.8289,-0.8282,-0.8266,-0.8273,-0.8258,-0.8238,-0.8233,-0.8157,-0.8171,-0.8161,-0.8143,-0.8067,-0.8065,-0.8063,-0.8064,-0.8061,-0.8058,0,0,0,0,0,0,-0.8417,-0.8383,-0.8381,-0.8343,-0.8319,-0.8287,-0.8268,-0.8263,-0.8235,-0.8236,-0.8217,-0.8208,-0.817,-0.8153,-0.8168,-0.8104,-0.8112,-0.8108,-0.8117,-0.8114,-0.8111,-0.8115,-0.8167,0,0,0,0,0,-0.8414,-0.8389,-0.836,-0.8329,-0.8318,-0.8295,-0.8278,-0.8269,-0.8242,-0.8231,-0.8208,-0.8181,-0.8151,-0.8132,-0.8102,-0.8061,-0.8052,-0.8044,-0.8041,-0.804,-0.8036,-0.8011,-0.8007,-0.8054,-0.8054,-0.8054,0,0,-0.8406,-0.8384,-0.8369,-0.8329,-0.8309,-0.8282,-0.8286,-0.8257,-0.8236,-0.8226,-0.8188,-0.8171,-0.8139,-0.8099,-0.808,-0.8083,-0.8021,-0.8037,-0.8036,-0.8032,-0.8009,-0.8004,-0.8,-0.8053,-0.8053,-0.8053,0,0,-0.8377,-0.8359,-0.8331,-0.8312,-0.8282,-0.8268,-0.8261,-0.823,-0.8218,-0.818,-0.8172,-0.8146,-0.8095,-0.8073,-0.8054,-0.8018,-0.8012,-0.8009,-0.7996,-0.7972,-0.7969,-0.7965,-0.7951,-0.7946,-0.8005,-0.8005,-0.8005,0,-0.837,-0.833,-0.8317,-0.8288,-0.827,-0.8263,-0.8233,-0.8214,-0.8176,-0.8163,-0.8168,-0.8104,-0.8082,-0.8035,-0.8027,-0.8013,-0.8003,-0.8012,-0.7971,-0.7967,-0.7963,-0.7949,-0.7944,-0.8005,-0.8005,-0.8005,-0.8005,0,-0.8322,-0.8295,-0.8276,-0.8241,-0.8221,-0.8192,-0.8173,-0.8154,-0.8146,-0.8131,-0.8091,-0.8065,-0.803,-0.8019,-0.801,-0.7971,-0.7974,-0.7975,-0.7982,-0.7959,-0.7945,-0.794,-0.8005,-0.8005,-0.8005,-0.8005,0,0,-0.8292,-0.8251,-0.8244,-0.8228,-0.8196,-0.8173,-0.8144,-0.8111,-0.8095,-0.8069,-0.8042,-0.7999,-0.8,-0.798,-0.7969,-0.7948,-0.792,-0.7952,-0.7951,-0.7945,-0.7873,-0.7871,-0.7865,-0.7916,-0.7915,-0.7914,-0.7875,0,-0.8258,-0.8207,-0.8194,-0.8149,-0.8123,-0.8115,-0.8089,-0.8066,-0.805,-0.8024,-0.8007,-0.7976,-0.7981,-0.7968,-0.7948,-0.7927,-0.7904,-0.793,-0.7889,-0.7888,-0.7896,-0.7859,-0.7857,-0.7821,-0.787,-0.7869,-0.7868,0,-0.8211,-0.8186,-0.8139,-0.811,-0.8099,-0.8076,-0.8045,-0.8021,-0.7993,-0.7983,-0.7961,-0.7952,-0.7919,-0.793,-0.7883,-0.7901,-0.7884,-0.7871,-0.7869,-0.7863,-0.7875,-0.785,-0.7809,-0.7803,-0.786,-0.7861,-0.7861,0,-0.8192,-0.8147,-0.8113,-0.8099,-0.8065,-0.8049,-0.8033,-0.8007,-0.7988,-0.796,-0.7948,-0.7916,-0.7898,-0.7873,-0.7855,-0.7865,-0.781,-0.7819,-0.7799,-0.7799,-0.7786,-0.7786,-0.774,-0.7777,-0.7778,-0.7778,-0.7778,0,-0.8155,-0.8126,-0.8104,-0.8082,-0.805,-0.8035,-0.8002,-0.7986,-0.7963,-0.7937,-0.7929,-0.7904,-0.7883,-0.7855,-0.7841,-0.7804,-0.7796,-0.7786,-0.7782,-0.7785,-0.7787,-0.7772,-0.7774,-0.7776,-0.7777,-0.7777,-0.7777,0,-0.8127,-0.8111,-0.8073,-0.8044,-0.8036,-0.8013,-0.7987,-0.7966,-0.7951,-0.7918,-0.791,-0.7886,-0.7853,-0.7833,-0.7791,-0.7781,-0.7739,-0.7737,-0.7749,-0.7747,-0.7727,-0.7729,-0.7668,-0.7659,-0.7704,-0.7704,-0.7704,0,-0.8103,-0.8081,-0.805,-0.8034,-0.8018,-0.7991,-0.7972,-0.7957,-0.7938,-0.7905,-0.7887,-0.7854,-0.7826,-0.7773,-0.7751,-0.7718,-0.7714,-0.7696,-0.7709,-0.7713,-0.7712,-0.7713,-0.771,-0.7693,-0.7692,-0.7692,-0.7692,0,-0.8062,-0.8056,-0.803,-0.8002,-0.798,-0.7956,-0.7933,-0.7919,-0.7899,-0.7878,-0.7845,-0.7824,-0.7782,-0.7748,-0.7714,-0.7696,-0.7689,-0.7688,-0.7681,-0.7683,-0.7691,-0.7685,-0.7741,-0.7689,-0.7689,-0.7689,-0.7689,-0.769,-0.8034,-0.8014,-0.799,-0.7961,-0.7942,-0.7921,-0.7899,-0.7882,-0.7855,-0.782,-0.7813,-0.7778,-0.775,-0.7704,-0.7685,-0.7656,-0.7659,-0.765,-0.7647,-0.7644,-0.7643,-0.7697,-0.765,-0.765,-0.765,-0.765,-0.765,0,-0.7992,-0.7976,-0.795,-0.7918,-0.7895,-0.7895,-0.7868,-0.7848,-0.7819,-0.7794,-0.7768,-0.773,-0.7697,-0.7673,-0.7639,-0.7621,-0.7617,-0.7612,-0.7613,-0.7608,-0.7643,-0.7652,-0.7616,-0.7616,-0.7616,-0.7616,-0.7616,-0.7616,-0.7967,-0.7932,-0.7923,-0.7879,-0.7862,-0.783,-0.7814,-0.7794,-0.7774,-0.7733,-0.7706,-0.7692,-0.7667,-0.7631,-0.7601,-0.7594,-0.7582,-0.7577,-0.757,-0.7602,-0.7606,-0.7609,-0.7617,-0.7575,-0.7575,-0.7537,-0.7537,-0.7536]}]]